Flag for Argentina Weather past 2 weeks in Zárate, Buenos Aires, Argentina

Now
68 °F

Passing clouds.


Feels Like: 68 °F
Forecast: 44 / 69 °F
Wind: 6 mph from Southwest

Location: Buenos Aires Airport


UV Index: 3 (Moderate)

Visibility: N/A


Pressure: 30.12 "Hg

Humidity: 38%

Dew point: 41 °F

Location of ZárateLocation

Historic Weather in Zárate

°F

Zárate temperature yesterday

Maximum temperature yesterday: 63 °F (at 12:00 PM)
Minimum temperature yesterday: 52 °F (at 7:00 AM)
Average temperature yesterday: 59 °F

Past Weeks' High & Low Weather Summary

 TemperatureHumidityPressure
High77 °F (Apr 4, 5:00 PM)100% (Apr 7, 3:00 AM)30.21 "Hg (Apr 7, 3:00 AM)
Low50 °F (Apr 12, 5:00 PM)31% (Apr 8, 5:00 PM)29.53 "Hg (Apr 8, 3:00 AM)
Average65 °F71%29.94 "Hg
* Reported Apr 4 10:00 AM — Apr 19 10:00 AM, Zárate, Weather by CustomWeather, © 2014

Note: Actual official high and low records may vary slightly from our data, if they occured in-between our weather recording intervals... More about our weather records

Advertising

Historic Weather Conditions — Data for Previous 24 hours

 ConditionsComfort  
Time TempWeatherWind HumidityBarometerVisibility
10:00 AM
Apr 19
63 °FPassing clouds.5 mph64%30.12 "HgN/A
9:00 AM61 °FClear.6 mph68%30.12 "Hg6 mi
8:00 AM54 °FClear.3 mph94%30.09 "Hg4 mi
7:00 AM55 °FClear.2 mph88%30.07 "Hg4 mi
6:00 AM54 °FClear.No wind88%30.04 "Hg4 mi
5:00 AM54 °FClear.3 mph88%30.04 "Hg5 mi
4:00 AM54 °FClear.3 mph94%30.04 "Hg5 mi
3:00 AM54 °FClear.No wind88%30.04 "Hg5 mi
2:00 AM55 °FClear.No wind82%30.01 "Hg10 mi
1:00 AM57 °FClear.2 mph77%30.01 "Hg10 mi
12:00 AM57 °FClear.No wind77%30.01 "Hg10 mi
11:00 PM
Apr 18
57 °FClear.No wind77%30.01 "Hg10 mi
10:00 PM59 °FClear.No wind72%29.98 "Hg10 mi
9:00 PM59 °FClear.No wind72%29.98 "Hg10 mi
8:00 PM59 °FClear.3 mph72%29.95 "Hg10 mi
7:00 PM61 °FClear.2 mph63%29.92 "Hg10 mi
6:00 PM63 °FPassing clouds.5 mph52%29.92 "HgN/A
5:00 PM63 °FSunny.7 mph56%29.95 "Hg10 mi
4:00 PM63 °FPassing clouds.6 mph56%29.95 "HgN/A
3:00 PM63 °FPassing clouds.6 mph56%29.95 "HgN/A
2:00 PM63 °FPassing clouds.5 mph56%29.95 "HgN/A
1:00 PM63 °FPassing clouds.6 mph52%29.98 "HgN/A
12:00 PM63 °FSunny.3 mph42%30.01 "Hg10 mi
11:00 AM61 °FPassing clouds.7 mph48%30.01 "HgN/A
Weather by CustomWeather, © 2014

See weather overview